Date String (YYYY-MM-DD hh:mm:ss) UTC,Instrument flags,Ambient pressure (hPa),Sample flow (lpm),Bypass flow (lpm),Sample temperature (°C),Ambient temperature (°C),ASC tube jacket temperature (°C),LED temperature (°C),Box temperature (°C),Sample RH (%),Span deviation,Mass concentration (μg/m³),Mass concentration (μg/m³),Mass concentration (μg/m³)
DateTimeUTC,F1_M11,P_M11,Q1_M11,Q2_M11,T1_M11,T2_M11,T3_M11,T4_M11,T5_M11,U1_M11,ZSPAN_M11,X0_M11,X2_M11,X1_M11
2023-01-14 04:00:00,,0826.0,5.00,0.00,25.4,23.9,00.0,34.3,27.1,11.3,0004.6,0015.21,0011.07,0010.30
2023-01-14 04:01:00,,0826.0,5.00,0.00,25.4,23.9,00.0,34.3,27.2,11.2,0005.6,0015.28,0011.02,0010.26
2023-01-14 04:02:00,,0825.9,4.99,0.00,25.4,23.9,00.0,34.3,27.2,11.3,0005.8,0015.40,0010.84,0010.10
2023-01-14 04:03:00,,0825.9,4.99,0.00,25.4,23.9,00.0,34.3,27.1,11.7,0006.1,0015.53,0010.79,0010.00
2023-01-14 04:04:00,,0826.0,4.98,0.00,25.4,23.9,00.0,34.3,27.2,11.6,0005.9,0015.39,0010.63,0009.86
2023-01-14 04:05:00,,0825.9,5.01,0.00,25.4,23.9,00.0,34.3,27.1,11.6,0005.8,0015.12,0010.40,0009.63
2023-01-14 04:06:00,,0825.7,5.01,0.00,25.4,23.9,00.0,34.3,27.2,11.7,0005.7,0014.94,0010.20,0009.40
2023-01-14 04:07:00,,0825.7,5.00,0.00,25.4,23.9,00.0,34.3,27.2,11.7,0005.9,0014.68,0010.02,0009.22
2023-01-14 04:08:00,,0825.7,4.99,0.00,25.4,23.9,00.0,34.3,27.1,11.7,0005.8,0014.25,0009.79,0009.01
2023-01-14 04:09:00,,0825.8,5.00,0.00,25.4,23.9,00.0,34.3,27.1,11.6,0005.8,0014.34,0009.64,0008.82
2023-01-14 04:10:00,,0826.0,5.01,0.00,25.3,23.9,00.0,34.3,27.0,11.7,0006.3,0014.44,0009.64,0008.78
2023-01-14 04:11:00,,0825.8,5.00,0.00,25.3,23.9,00.0,34.2,27.0,11.8,0005.5,0014.24,0009.48,0008.63
2023-01-14 04:12:00,,0825.6,5.00,0.00,25.3,23.8,00.0,34.2,27.1,11.8,0003.8,0013.86,0009.22,0008.42
2023-01-14 04:13:00,,0825.7,5.00,0.00,25.3,23.8,00.0,34.2,27.1,11.7,0003.6,0013.45,0009.09,0008.28
2023-01-14 04:14:00,,0825.7,5.00,0.00,25.3,23.8,00.0,34.2,27.1,11.3,0002.9,0013.80,0008.95,0008.20
2023-01-14 04:15:00,,0825.7,4.99,0.00,25.3,23.7,00.0,34.2,27.0,11.4,0003.4,0013.73,0008.85,0008.12
2023-01-14 04:16:00,,0825.7,4.98,0.00,25.3,23.7,00.0,34.2,27.0,11.7,0003.9,0014.08,0008.83,0008.11
2023-01-14 04:17:00,,0825.7,4.99,0.00,25.3,23.8,00.0,34.2,27.0,11.9,0005.4,0014.29,0008.84,0008.15
2023-01-14 04:18:00,,0825.7,5.01,0.00,25.3,23.8,00.0,34.2,27.0,11.8,0006.0,0014.29,0008.84,0008.12
2023-01-14 04:19:00,,0825.7,5.00,0.00,25.3,23.8,00.0,34.2,27.0,11.9,0006.9,0014.63,0008.92,0008.14
2023-01-14 04:20:00,,0825.7,5.01,0.00,25.3,23.4,00.0,33.0,24.5,11.9,0006.9,0015.40,0008.90,0008.10
2023-01-14 04:21:00,,0825.6,5.00,0.00,25.2,23.6,00.0,34.2,27.0,11.7,0007.1,0015.40,0008.76,0007.97
2023-01-14 04:22:00,,0825.7,4.99,0.00,25.2,23.6,00.0,34.2,27.0,11.8,0007.1,0015.45,0008.77,0007.94
2023-01-14 04:23:00,,0825.8,4.99,0.00,25.2,23.7,00.0,34.1,27.0,11.8,0007.2,0015.44,0008.84,0007.99
2023-01-14 04:24:00,,0825.6,5.00,0.00,25.2,23.7,00.0,34.1,27.1,11.7,0007.2,0015.41,0008.86,0008.03
2023-01-14 04:25:00,,0825.7,5.00,0.00,25.2,23.8,00.0,34.1,27.1,11.7,0007.0,0015.12,0008.88,0008.00
2023-01-14 04:26:00,,0825.7,5.00,0.00,25.2,23.8,00.0,34.1,27.0,11.7,0006.7,0015.54,0008.88,0007.97
2023-01-14 04:27:00,,0825.7,4.99,0.00,25.2,23.8,00.0,34.1,27.0,11.9,0006.5,0015.43,0008.89,0007.93
2023-01-14 04:28:00,,0825.7,5.01,0.00,25.2,23.8,00.0,34.1,27.0,12.0,0006.5,0015.58,0008.85,0007.85
2023-01-14 04:29:00,,0825.6,5.00,0.00,25.2,23.8,00.0,34.1,27.0,11.9,0006.2,0015.67,0008.85,0007.84
2023-01-14 04:30:00,,0825.7,5.01,0.00,25.2,23.8,00.0,34.1,27.0,11.9,0005.8,0015.55,0008.83,0007.79
2023-01-14 04:31:00,,0825.6,4.99,0.00,25.2,23.8,00.0,34.1,27.1,12.1,0005.9,0015.17,0008.86,0007.80
2023-01-14 04:32:00,,0825.6,4.99,0.00,25.2,23.8,00.0,34.1,27.1,12.2,0005.7,0015.02,0008.81,0007.75
2023-01-14 04:33:00,,0825.5,4.99,0.00,25.2,23.8,00.0,34.1,27.1,12.1,0005.2,0015.23,0008.80,0007.70
2023-01-14 04:34:00,,0825.5,5.00,0.00,25.2,23.8,00.0,34.1,27.0,12.2,0004.9,0015.53,0008.81,0007.63
2023-01-14 04:35:00,,0825.5,5.01,0.00,25.2,23.8,00.0,34.1,27.0,12.4,0004.9,0016.59,0008.78,0007.54
2023-01-14 04:36:00,,0825.5,4.99,0.00,25.2,23.8,00.0,34.1,27.1,12.4,0005.0,0016.99,0008.74,0007.46
2023-01-14 04:37:00,,0825.5,5.00,0.00,25.2,23.8,00.0,34.1,27.0,12.1,0004.7,0016.77,0008.69,0007.39
2023-01-14 04:38:00,,0825.5,5.00,0.00,25.2,23.8,00.0,34.1,27.0,12.0,0004.6,0017.08,0008.66,0007.33
2023-01-14 04:39:00,,0825.5,4.99,0.00,25.2,23.8,00.0,34.1,27.1,12.0,0004.4,0016.76,0008.65,0007.30
2023-01-14 04:40:00,,0825.5,5.00,0.00,25.2,23.8,00.0,34.1,27.1,12.0,0004.8,0017.03,0008.63,0007.27
2023-01-14 04:41:00,,0825.4,5.00,0.00,25.2,23.8,00.0,34.1,27.1,11.9,0005.2,0017.16,0008.59,0007.27
2023-01-14 04:42:00,,0825.5,5.00,0.00,25.2,23.9,00.0,34.1,27.1,11.8,0004.7,0017.63,0008.56,0007.28
2023-01-14 04:43:00,,0825.5,5.00,0.00,25.2,23.8,00.0,34.1,27.1,11.4,0004.7,0018.09,0008.68,0007.34
2023-01-14 04:44:00,,0825.5,4.99,0.00,25.3,23.8,00.0,34.1,27.1,11.5,0004.9,0018.93,0008.71,0007.39
2023-01-14 04:45:00,,0825.5,5.01,0.00,25.2,23.8,00.0,34.1,27.1,11.7,0005.0,0020.47,0008.71,0007.44
2023-01-14 04:46:00,,0825.4,5.00,0.00,25.2,23.8,00.0,34.1,27.0,12.2,0005.0,0019.69,0008.76,0007.48
2023-01-14 04:47:00,,0825.4,5.00,0.00,25.2,23.8,00.0,34.1,27.1,12.5,0005.4,0019.10,0008.80,0007.50
2023-01-14 04:48:00,,0825.4,5.00,0.00,25.2,23.8,00.0,34.1,27.1,12.6,0005.7,0018.80,0008.75,0007.46
2023-01-14 04:49:00,,0825.4,5.00,0.00,25.2,23.8,00.0,34.1,27.0,12.6,0005.8,0018.39,0008.66,0007.41
2023-01-14 04:50:00,,0825.4,5.00,0.00,25.2,23.8,00.0,34.1,27.1,12.8,0005.6,0018.23,0008.55,0007.35
2023-01-14 04:51:00,,0825.4,5.00,0.00,25.3,23.8,00.0,34.1,27.1,12.8,0004.8,0017.83,0008.47,0007.29
2023-01-14 04:52:00,,0825.4,5.00,0.00,25.3,23.8,00.0,34.1,27.1,12.8,0004.4,0018.42,0008.40,0007.23
2023-01-14 04:53:00,,0825.4,5.00,0.00,25.2,23.8,00.0,34.1,27.0,12.8,0004.3,0017.44,0008.33,0007.17
2023-01-14 04:54:00,,0825.4,5.00,0.00,25.2,23.8,00.0,34.1,27.1,12.7,0005.2,0016.97,0008.26,0007.11
2023-01-14 04:55:00,,0825.3,5.00,0.00,25.2,23.8,00.0,34.1,27.1,12.2,0004.7,0015.95,0008.25,0007.10
2023-01-14 04:56:00,,0825.3,5.00,0.00,25.2,23.8,00.0,34.1,27.1,12.0,0004.0,0014.37,0008.30,0007.13
2023-01-14 04:57:00,,0825.3,5.01,0.00,25.2,23.8,00.0,34.1,27.1,11.8,0004.6,0014.45,0008.32,0007.19
2023-01-14 04:58:00,,0825.3,4.99,0.00,25.2,23.8,00.0,34.1,27.1,11.7,0004.7,0014.53,0008.35,0007.25
2023-01-14 04:59:00,,0825.2,5.00,0.00,25.2,23.8,00.0,34.1,27.1,11.6,0004.8,0014.84,0008.45,0007.34
